Location: New Canada
(47.1017°N, 68.5042°W)
Time: 16:21:47
(UTC+00:00)

KKS-1 - Pass Details

Date: 25 April 2024
Orbit: 628 x 639 km, 98.1° (Epoch: 21 May)

Event Time Altitude Azimuth Distance (km) Brightness Sun altitude
Rises 02:48:46 0° 27° (NNE) 2,957 ? -25.3°
Reaches altitude 10° 02:51:32 10° 45° (NE) 2,041 ? -25.5°
Enters shadow 02:52:55 16° 61° (ENE) 1,698 ? -25.6°
